Temp
84 84 84 82 84 64 76 78 69 73 83 78 69 69 73 72 66 62 77 75 79 87 88 92 93 93 94 95 97 98 98 98 95 88 90 91 91 92 92 91 90 89 90 88 89 89 89 90 90 90 89 91 90 89 88 86 85 86 86 85 85 85 85
83 86 87 85 85 83 78 70 76 85 87 83 71 60 65 63 59 63 73 71 74 74 68 88 89 89 92 93 94 96 97 98 96 88 91 89 90 91 92 92 91 90 90 89 91 92 92 91 92 90 88 92 91 91 89 87 86 85 86 87 87 86 85
81 85 84 79 84 89 78 75 88 74 65 62 70 66 54 56 56 60 68 73 74 77 76 84 84 86 89 91 93 93 95 99 98 94 89 91 93 93 91 91 91 91 90 90 90 91 92 91 89 89 91 94 95 93 92 91 87 88 88 90 88 87 87
78 80 78 64 73 83 85 85 78 82 74 68 65 66 66 65 57 59 62 69 66 81 82 88 86 88 88 90 91 92 95 95 95 97 96 93 94 92 90 91 92 90 91 92 92 93 93 92 91 91 93 95 94 93 93 91 90 89 89 89 88 87 89
75 64 72 68 72 70 74 73 71 74 75 80 76 76 70 63 59 59 60 61 69 80 91 91 91 90 89 90 90 92 94 96 97 97 98 97 95 92 92 94 93 93 92 94 93 93 94 93 92 90 89 87 91 92 94 92 89 90 90 90 90 88 88
63 67 77 77 77 77 76 75 72 73 70 66 61 58 77 73 64 56 60 58 71 87 94 93 92 93 91 92 92 93 96 98 96 97 99 99 97 91 94 93 95 94 95 95 95 95 94 93 92 87 84 82 85 88 91 93 92 91 91 90 89 88 88
64 71 77 81 81 78 74 75 75 78 76 75 67 54 63 73 74 74 70 64 68 87 92 91 94 96 98 96 96 93 96 97 98 99 101 101 97 97 94 95 95 96 95 95 95 93 92 92 88 85 84 84 83 85 88 94 93 92 92 92 91 89 89
67 71 75 76 77 76 74 74 76 77 74 73 68 69 71 66 70 65 66 60 68 87 89 91 95 96 99 96 97 94 96 98 98 98 99 97 96 97 96 95 98 93 94 94 91 90 90 90 88 85 85 86 87 90 88 95 94 93 93 93 93 90 90
56 61 67 69 75 74 71 71 75 77 78 77 75 72 68 58 65 70 65 57 68 83 90 91 92 94 95 97 99 99 96 96 98 99 99 98 94 95 99 99 93 93 93 91 89 89 88 89 90 88 89 90 91 92 91 89 93 95 94 94 93 91 91
40 42 47 51 58 64 70 73 73 74 77 74 69 62 64 55 62 64 62 65 75 85 86 87 91 91 90 93 95 98 97 97 97 99 99 95 94 92 95 96 91 91 90 91 89 88 88 92 94 90 90 91 93 93 93 96 95 95 95 95 94 92 92
48 54 57 61 64 61 58 63 66 66 70 72 69 65 61 60 63 63 66 66 72 77 82 76 78 86 90 91 93 90 91 95 95 92 92 95 95 93 96 95 93 89 88 89 89 88 92 94 95 95 94 95 95 92 93 94 95 96 95 95 93 93 92
54 57 57 61 61 57 59 60 62 67 67 66 64 61 56 63 56 51 61 68 71 74 78 80 79 78 83 83 82 90 87 89 90 88 86 92 101 96 96 95 93 89 88 89 88 89 92 95 95 96 95 95 94 93 94 94 97 98 97 95 93 92 91
58 60 60 62 60 61 60 61 61 60 64 65 61 60 65 64 56 52 63 64 65 75 77 77 76 77 79 81 78 80 86 87 88 87 88 86 89 98 96 90 90 89 90 88 89 91 92 95 95 96 96 96 95 95 96 97 97 98 96 95 93 93 91
57 59 61 62 61 61 62 62 63 64 64 64 64 65 68 66 62 64 65 65 67 77 76 78 76 75 79 78 77 79 78 83 83 86 85 86 87 86 86 86 88 87 90 91 89 90 90 94 94 97 96 95 97 97 97 98 96 99 96 95 92 93 92
53 58 60 60 60 60 59 63 64 65 64 64 65 65 65 65 65 67 68 66 67 74 75 78 80 75 80 78 75 76 77 80 83 83 84 84 83 84 84 84 86 87 87 88 86 86 91 93 94 95 95 96 98 99 99 99 97 99 99 94 94 93 91
47 55 56 58 60 60 59 59 61 61 61 59 63 62 66 64 61 65 67 64 67 69 76 78 77 73 71 75 74 74 76 79 80 80 81 81 81 82 83 83 84 86 86 85 83 78 79 82 84 91 93 97 99 99 99 99 100 101 99 96 95 92 92
43 54 58 57 57 56 52 54 60 63 64 65 66 68 69 69 70 65 62 64 69 69 73 72 72 73 74 73 74 74 76 77 77 78 79 79 80 81 80 81 82 84 83 84 85 86 83 79 80 80 80 90 95 98 97 99 99 101 100 99 94 91 93
45 52 53 56 49 39 43 63 69 67 63 65 63 64 66 70 72 68 72 74 72 75 71 70 68 71 71 73 73 73 73 74 74 77 78 78 79 80 81 81 81 80 81 82 84 86 88 91 94 94 95 96 98 100 100 99 98 96 96 97 95 92 91
41 50 50 42 35 39 59 67 67 65 65 65 60 60 67 70 73 74 74 75 74 74 72 72 72 71 76 74 72 74 75 75 75 74 76 75 75 77 77 77 79 78 79 81 82 84 88 89 87 90 96 100 98 98 97 96 97 93 94 94 92 92 90
48 44 44 29 35 53 62 65 60 64 65 63 60 60 65 69 67 60 57 59 68 75 77 75 74 73 76 77 73 72 72 75 74 74 73 75 75 75 76 76 77 77 79 79 82 83 85 88 91 92 93 98 99 98 99 96 96 94 93 92 92 91 90
37 41 42 42 53 51 55 55 52 56 52 53 53 48 58 58 59 61 60 61 64 67 68 69 70 72 74 73 67 72 71 73 74 74 74 75 75 76 76 78 78 78 79 81 82 82 84 85 86 90 94 97 97 99 97 96 93 95 95 91 91 90 90
48 42 39 40 41 35 45 45 57 62 62 62 60 54 53 55 57 60 60 58 61 62 64 65 67 71 69 66 66 68 71 73 72 74 74 75 75 76 76 77 78 78 78 78 80 80 81 83 87 89 92 96 95 93 94 95 95 94 94 93 92 90 92
44 42 37 35 33 40 45 50 52 60 63 62 60 52 47 51 55 57 60 59 60 61 59 61 65 65 62 64 62 67 69 71 72 71 72 73 74 74 75 75 75 75 74 75 78 79 82 84 87 90 92 92 94 93 93 95 95 93 93 94 93 92 92
41 43 38 37 46 39 45 52 56 61 64 60 56 39 40 48 55 57 57 57 59 60 60 60 62 60 54 55 60 69 70 70 72 70 70 70 71 73 74 75 73 72 73 74 76 79 81 82 86 86 90 92 90 93 93 96 96 95 94 94 94 94 94
41 41 44 47 47 46 51 53 58 59 61 57 42 36 44 50 54 57 57 57 60 60 59 59 55 59 60 62 65 69 70 69 69 71 71 71 71 71 72 72 70 72 73 73 74 76 78 80 83 86 87 92 93 91 92 93 94 97 97 96 94 93 92
38 43 41 43 45 42 52 56 57 59 53 42 41 45 50 52 53 56 57 55 58 60 59 57 58 60 64 66 67 67 67 67 68 69 69 69 70 71 71 69 70 70 70 71 73 75 77 79 82 85 86 88 89 90 92 93 95 99 96 95 94 92 91
43 42 40 38 33 43 55 53 56 56 45 42 46 50 54 56 55 54 54 55 56 57 55 59 59 61 63 64 65 66 66 67 66 67 66 66 66 66 67 68 69 68 67 68 71 72 76 79 81 84 85 87 90 90 91 92 97 97 96 95 93 92 90
34 35 35 34 40 46 55 52 41 50 51 54 55 54 52 57 57 56 54 55 56 56 56 56 57 60 61 62 64 65 65 67 67 66 66 65 65 66 67 67 67 66 65 66 68 71 74 76 79 81 84 86 89 90 90 93 95 96 94 93 91 91 89
39 36 39 45 50 52 56 56 54 55 56 57 57 56 55 54 56 58 55 54 56 56 56 56 57 57 60 60 63 64 64 65 64 63 63 63 64 64 64 64 65 64 64 64 67 69 73 75 76 79 85 88 89 89 91 92 92 93 92 92 90 89 90
50 53 53 54 55 54 56 56 56 54 55 58 58 56 54 55 56 57 55 56 56 56 57 55 57 57 59 60 62 63 65 65 63 63 63 63 63 63 64 63 63 63 65 65 66 67 69 73 75 78 85 89 88 89 92 91 92 92 91 89 88 88 88
42 38 50 50 51 54 56 54 56 57 57 56 57 56 55 56 57 58 58 56 56 57 57 57 56 58 60 60 61 62 63 64 64 62 60 61 61 61 61 61 62 62 62 63 63 65 66 70 73 78 84 88 91 91 90 92 92 91 90 88 87 87 87
39 39 46 50 52 54 55 53 51 52 54 55 56 56 57 58 58 58 58 59 57 59 58 59 57 57 59 60 60 61 61 63 64 63 61 60 60 61 61 61 61 60 61 61 62 64 65 68 71 76 83 86 91 91 92 93 94 91 88 87 88 88 89
43 48 50 50 51 53 51 52 53 54 54 54 55 57 57 58 57 57 58 59 58 58 58 59 58 56 58 60 60 61 62 62 63 62 61 60 60 60 60 59 60 59 59 60 61 63 65 68 71 77 83 85 89 91 90 91 91 90 87 86 87 90 91
38 38 41 46 38 39 46 50 52 53 55 55 55 55 56 56 55 56 55 56 58 59 59 59 59 57 57 59 60 60 61 61 61 62 61 60 60 60 60 59 58 59 60 60 61 62 64 67 73 80 82 81 80 86 90 93 91 89 87 86 87 88 89
36 45 47 48 46 44 48 50 53 54 55 55 53 52 53 54 56 56 54 53 54 56 58 61 59 57 57 58 61 60 60 60 61 62 62 60 60 60 60 58 57 57 58 60 61 62 63 68 75 78 79 81 81 82 78 74 77 80 83 85 87 88 87
49 51 50 50 46 43 48 51 52 53 55 54 52 53 54 54 54 55 55 54 53 54 57 59 60 58 58 59 60 60 61 61 61 62 62 62 61 61 60 58 57 57 57 58 60 60 62 69 74 76 78 76 74 77 77 76 73 70 69 71 79 87 89
47 53 52 51 50 50 50 51 52 53 55 53 52 52 53 53 54 56 54 54 55 55 55 56 58 60 59 60 61 61 61 61 62 62 61 61 61 60 58 57 57 57 57 58 59 62 66 70 73 73 74 76 76 76 76 77 76 73 71 70 70 76 85
MSLP
1003.50 1003.78 1003.98 1004.94 1004.90 1010.62 1006.10 1005.82 1008.02 1007.14 1004.78 1006.14 1008.22 1008.14 1006.74 1006.82 1008.30 1008.70 1003.66 1003.90 1002.58 1000.66 1000.34 999.54 999.10 999.30 999.22 999.06 999.02 998.42 998.42 998.66 999.42 1001.70 1002.10 1002.34 1002.74 1002.94 1003.22 1003.66 1004.10 1004.38 1004.74 1005.18 1005.46 1005.74 1005.94 1006.26 1006.58 1006.70 1006.74 1007.06 1007.62 1008.22 1008.86 1009.62 1009.98 1010.14 1010.38 1010.58 1010.86 1011.14 1011.46
1004.22 1003.18 1003.02 1003.50 1003.90 1004.70 1005.78 1007.66 1005.90 1003.86 1003.38 1004.42 1007.74 1011.06 1009.14 1009.50 1010.50 1008.62 1005.38 1005.86 1004.26 1004.30 1006.70 1000.14 1000.10 1000.30 999.54 999.34 999.46 999.02 998.18 998.06 999.22 1001.42 1001.26 1001.94 1002.06 1002.18 1002.34 1002.66 1003.10 1003.58 1003.94 1004.54 1004.82 1004.90 1005.14 1005.58 1005.90 1006.14 1006.34 1006.38 1006.94 1007.54 1008.18 1008.98 1009.54 1010.06 1010.06 1010.22 1010.54 1010.82 1011.18
1004.66 1003.66 1004.50 1005.74 1003.86 1002.54 1005.78 1006.34 1002.26 1006.30 1008.90 1010.62 1007.78 1009.46 1012.82 1012.30 1011.66 1009.86 1006.90 1004.90 1004.10 1002.74 1002.86 1000.94 1001.34 1000.94 1000.58 999.70 999.22 999.42 998.98 997.90 998.18 999.66 1001.26 1000.82 1000.74 1001.02 1002.06 1002.62 1002.86 1003.22 1003.70 1003.94 1004.22 1004.66 1004.82 1005.10 1005.50 1005.90 1006.06 1006.18 1006.66 1007.22 1007.74 1008.26 1008.94 1009.10 1009.34 1009.62 1010.02 1010.34 1010.50
1006.18 1005.50 1006.22 1009.98 1007.74 1004.30 1004.06 1004.14 1005.30 1004.14 1006.70 1007.70 1008.94 1008.54 1008.46 1008.86 1011.14 1010.42 1008.46 1006.54 1006.54 1001.38 1000.58 999.30 999.78 999.78 1000.22 1000.18 999.38 999.46 998.70 998.70 999.06 998.82 999.26 1000.02 1000.14 1000.74 1001.54 1001.98 1002.26 1002.74 1003.02 1003.30 1003.50 1003.94 1004.42 1004.86 1005.46 1005.82 1006.06 1006.22 1006.94 1007.26 1007.50 1007.94 1008.34 1008.74 1009.14 1009.42 1009.58 1009.98 1010.02
1008.02 1010.34 1007.90 1009.06 1008.02 1007.98 1006.70 1007.34 1007.42 1006.54 1006.18 1004.42 1005.42 1005.06 1006.58 1009.22 1010.34 1010.18 1009.54 1008.94 1005.50 1001.50 997.90 997.74 997.78 998.42 999.10 999.54 999.50 998.74 998.50 998.14 998.42 998.50 998.10 998.14 999.10 1000.06 1000.70 1000.94 1001.54 1001.94 1002.42 1002.58 1002.94 1003.22 1003.58 1004.22 1004.86 1005.66 1006.18 1006.94 1007.22 1007.54 1007.34 1007.58 1008.14 1008.46 1008.70 1008.82 1009.06 1009.46 1009.66
1010.94 1009.50 1006.94 1006.50 1006.74 1006.46 1006.18 1005.82 1007.06 1006.46 1007.78 1008.50 1010.18 1010.38 1004.58 1005.50 1008.62 1009.98 1009.98 1009.70 1004.38 999.22 996.74 997.30 997.26 997.14 998.26 998.34 998.82 998.66 998.18 997.86 997.74 998.02 997.50 997.18 998.26 999.82 999.86 1000.58 1000.86 1001.42 1001.62 1002.06 1002.38 1002.62 1003.10 1003.90 1004.66 1005.58 1006.02 1006.62 1007.50 1007.82 1007.58 1007.22 1007.42 1007.74 1008.06 1008.30 1008.46 1008.78 1009.06
1010.98 1008.66 1006.94 1005.66 1005.62 1006.38 1007.10 1006.38 1006.06 1004.86 1005.18 1005.58 1007.82 1010.90 1008.18 1005.18 1004.66 1005.50 1006.54 1008.14 1005.38 998.66 996.86 997.34 996.34 996.02 995.90 996.54 997.34 998.58 998.02 997.70 997.42 997.34 997.22 997.02 997.38 998.26 999.38 999.58 1000.06 1000.30 1001.02 1001.46 1001.98 1002.62 1003.06 1003.58 1004.46 1005.22 1005.94 1006.14 1006.62 1007.46 1007.46 1006.86 1006.90 1007.06 1007.10 1007.30 1007.54 1007.98 1008.46
1010.70 1009.30 1008.02 1007.46 1007.14 1007.06 1007.46 1006.82 1005.62 1005.22 1005.50 1006.38 1007.78 1007.18 1005.90 1007.02 1005.86 1007.22 1007.42 1008.82 1005.74 999.18 997.58 997.26 995.94 995.22 995.42 996.06 996.62 997.74 997.74 997.46 997.34 997.02 996.98 997.26 997.62 997.62 998.50 998.94 998.90 999.98 1000.54 1001.18 1001.82 1002.58 1003.22 1003.50 1004.22 1004.94 1005.30 1005.62 1005.82 1006.18 1006.86 1006.50 1006.38 1006.42 1006.50 1006.66 1006.94 1007.46 1007.94
1012.86 1011.34 1009.98 1009.22 1007.74 1007.70 1007.98 1007.50 1006.14 1005.34 1004.98 1005.22 1005.46 1006.46 1007.54 1010.34 1007.30 1005.66 1007.06 1009.86 1006.70 1000.66 998.18 997.86 997.58 997.14 996.86 996.38 996.30 996.66 997.58 997.38 997.14 996.98 996.82 996.82 997.18 997.70 997.66 997.98 999.22 999.78 1000.50 1001.30 1001.78 1002.26 1002.66 1003.02 1003.46 1004.06 1004.58 1004.78 1004.94 1004.98 1005.70 1006.62 1006.30 1005.78 1005.86 1005.98 1006.42 1006.90 1007.30
1016.98 1015.94 1014.22 1012.98 1011.58 1009.82 1008.14 1007.26 1007.30 1006.22 1005.38 1006.14 1007.78 1009.82 1008.66 1010.58 1008.02 1007.18 1007.78 1006.70 1003.22 1000.30 999.46 999.42 998.10 997.86 997.94 997.46 997.18 996.46 997.06 996.74 997.06 996.94 996.98 996.74 997.26 997.50 997.58 997.82 999.30 999.86 1000.30 1000.50 1001.18 1001.74 1002.18 1002.26 1002.50 1003.06 1003.58 1003.94 1003.98 1004.22 1004.58 1004.78 1005.26 1005.30 1005.46 1005.50 1005.82 1006.38 1006.82
1015.22 1012.90 1011.86 1012.22 1011.46 1012.02 1012.34 1010.46 1009.62 1009.38 1008.18 1007.70 1008.18 1008.82 1009.26 1009.22 1008.34 1007.94 1006.10 1006.50 1004.66 1003.14 1002.02 1003.06 1002.26 999.46 998.66 998.42 997.78 998.54 998.62 997.58 997.18 997.82 997.94 997.34 996.90 997.26 997.42 997.54 998.74 999.54 1000.06 1000.46 1000.74 1001.14 1001.30 1001.62 1001.74 1002.10 1002.62 1002.90 1003.14 1003.58 1003.98 1004.46 1004.54 1004.70 1004.78 1004.94 1005.30 1005.82 1006.30
1015.02 1013.98 1013.54 1012.54 1012.98 1013.70 1012.62 1012.10 1011.06 1009.46 1009.58 1009.66 1009.86 1010.22 1011.26 1008.42 1011.14 1012.14 1008.38 1005.78 1005.30 1003.90 1003.30 1002.74 1002.70 1002.62 1000.78 1000.86 1000.58 999.10 999.70 999.46 998.98 999.30 999.06 997.50 996.74 997.14 997.18 997.74 998.18 999.62 999.98 1000.06 1000.54 1000.78 1000.98 1001.22 1001.26 1001.50 1001.86 1002.22 1002.62 1003.02 1003.30 1003.58 1003.74 1003.90 1004.06 1004.46 1004.90 1005.38 1005.82
1014.26 1013.46 1012.98 1012.46 1012.74 1012.70 1012.46 1012.10 1011.86 1011.70 1010.50 1010.06 1010.86 1010.78 1009.58 1009.70 1011.66 1011.98 1008.18 1007.86 1007.58 1004.06 1004.10 1004.18 1004.42 1003.94 1003.26 1002.38 1002.62 1002.14 1000.98 1000.54 999.98 999.70 999.82 1000.50 999.50 997.42 998.82 999.50 999.22 999.50 999.82 999.94 999.90 1000.30 1000.66 1000.70 1000.98 1001.10 1001.38 1001.70 1001.86 1002.14 1002.26 1002.50 1002.94 1003.02 1003.30 1003.86 1004.38 1004.86 1005.38
1014.26 1013.50 1013.06 1012.58 1012.42 1012.14 1011.86 1011.42 1010.98 1010.62 1010.54 1010.38 1010.06 1009.38 1008.74 1009.26 1009.86 1008.86 1008.38 1007.66 1007.70 1004.22 1004.42 1004.06 1004.74 1005.06 1003.94 1003.70 1003.18 1002.86 1003.10 1002.30 1001.62 1001.10 1001.34 1001.50 1001.42 1001.14 1000.82 1000.78 1000.50 1000.38 1000.10 999.86 1000.06 1000.22 1000.26 1000.34 1000.38 1000.50 1000.78 1001.06 1001.30 1001.62 1001.90 1001.98 1002.42 1002.34 1002.86 1003.58 1004.06 1004.46 1004.90
1014.78 1013.74 1013.42 1013.26 1012.98 1012.10 1011.78 1010.86 1010.58 1010.42 1010.34 1010.46 1010.18 1010.10 1009.62 1009.46 1008.98 1008.38 1007.98 1007.90 1006.94 1005.06 1004.50 1004.10 1003.58 1005.02 1004.22 1003.98 1004.62 1004.58 1004.30 1003.62 1002.82 1002.62 1002.50 1002.42 1002.42 1002.02 1001.70 1001.38 1001.06 1000.78 1000.58 1000.78 1001.34 1001.38 1000.54 999.94 999.82 1000.06 1000.22 1000.38 1000.66 1000.98 1001.26 1001.54 1001.86 1001.78 1002.14 1003.02 1003.50 1003.90 1004.42
1015.98 1014.50 1014.14 1013.30 1012.58 1012.10 1011.94 1011.58 1011.06 1011.14 1011.14 1011.30 1010.22 1010.26 1009.02 1009.54 1010.02 1008.86 1008.14 1008.10 1006.86 1006.42 1004.82 1004.42 1004.54 1005.54 1005.98 1005.38 1005.38 1005.26 1005.06 1004.50 1004.02 1003.94 1003.58 1003.26 1003.02 1002.66 1002.38 1002.10 1001.86 1001.58 1001.66 1001.82 1001.94 1002.46 1002.62 1002.14 1001.46 1000.98 1000.38 1000.14 1000.46 1000.78 1000.82 1001.10 1001.22 1001.22 1001.70 1002.42 1003.02 1003.50 1003.86
1016.58 1014.22 1013.18 1013.18 1012.74 1012.54 1012.46 1011.82 1010.86 1010.26 1010.06 1009.74 1009.30 1008.66 1008.22 1008.14 1007.90 1008.58 1008.78 1007.94 1006.98 1007.18 1005.74 1006.10 1006.46 1006.34 1006.06 1006.14 1005.86 1005.62 1005.26 1005.14 1005.02 1004.74 1004.58 1004.30 1003.86 1003.34 1003.14 1002.98 1002.74 1002.46 1002.66 1002.66 1002.42 1002.54 1003.34 1003.66 1003.02 1002.74 1002.90 1002.10 1000.94 1000.38 1000.54 1000.50 1000.58 1000.98 1001.46 1001.90 1002.62 1003.22 1003.50
1015.78 1014.74 1014.26 1013.50 1014.30 1015.54 1013.98 1009.82 1008.54 1008.90 1009.78 1009.30 1009.58 1009.14 1008.50 1007.66 1007.34 1007.42 1006.10 1005.06 1005.98 1005.66 1006.62 1007.14 1007.86 1007.26 1007.18 1006.38 1006.34 1006.06 1006.22 1006.06 1005.70 1005.26 1005.10 1005.18 1004.74 1004.26 1004.02 1003.82 1003.58 1003.34 1002.90 1002.74 1002.66 1002.50 1002.26 1001.82 1001.46 1001.10 1000.66 1000.86 1000.14 999.78 1000.10 1000.22 1000.78 1001.02 1001.38 1001.66 1002.22 1002.86 1003.18
1017.10 1014.74 1014.62 1016.30 1016.98 1015.30 1011.42 1009.14 1009.38 1009.74 1009.74 1009.74 1010.66 1010.02 1008.38 1007.46 1006.74 1006.18 1005.66 1005.26 1005.54 1005.62 1006.26 1006.86 1007.02 1007.30 1006.14 1006.74 1007.22 1006.74 1006.66 1006.22 1006.02 1006.10 1005.82 1005.94 1005.66 1005.38 1005.14 1004.86 1004.50 1004.26 1003.70 1002.98 1002.66 1002.58 1002.18 1001.74 1001.50 1001.06 1000.34 999.90 1000.10 1000.14 1000.58 1001.30 1000.94 1001.22 1001.30 1001.50 1001.98 1002.50 1002.98
1015.74 1016.02 1015.50 1018.26 1016.10 1012.66 1011.02 1010.10 1011.42 1010.46 1009.94 1010.46 1010.62 1010.06 1009.06 1007.90 1008.46 1010.06 1010.38 1009.94 1007.06 1005.14 1004.86 1005.98 1006.66 1006.98 1006.50 1006.30 1006.94 1007.26 1007.26 1006.58 1006.62 1006.58 1006.50 1006.22 1006.06 1005.94 1005.62 1005.38 1005.06 1004.78 1004.34 1003.94 1003.26 1002.78 1002.30 1001.82 1001.34 1001.02 1000.74 999.90 999.94 1000.38 1000.34 1000.94 1001.06 1001.10 1001.42 1001.46 1001.82 1002.22 1002.82
1017.50 1016.42 1015.26 1014.74 1012.54 1012.82 1012.02 1012.06 1013.30 1012.58 1013.22 1012.82 1012.70 1013.38 1010.26 1011.38 1011.10 1010.14 1009.98 1009.58 1009.06 1008.30 1007.66 1008.02 1008.02 1007.58 1007.14 1006.98 1008.38 1007.58 1007.66 1007.30 1006.94 1006.78 1006.66 1006.42 1006.34 1005.98 1005.62 1005.30 1005.14 1004.66 1004.26 1003.98 1003.50 1003.06 1002.70 1002.38 1001.82 1001.18 1000.46 1000.18 1000.18 1000.02 1000.30 1000.54 1000.78 1000.94 1001.18 1001.58 1001.70 1001.90 1002.30
1015.26 1015.98 1016.06 1015.14 1014.74 1015.38 1013.62 1015.62 1013.18 1011.98 1011.90 1011.74 1011.90 1012.74 1011.70 1012.26 1011.90 1011.18 1010.22 1010.58 1010.58 1010.46 1009.82 1009.50 1008.94 1008.02 1008.10 1008.26 1008.50 1008.42 1008.02 1007.54 1007.38 1006.94 1006.82 1006.62 1006.42 1006.14 1005.82 1005.34 1004.98 1004.74 1004.54 1004.34 1003.90 1003.70 1003.30 1002.70 1001.94 1001.26 1000.50 999.82 999.98 1000.26 1000.34 1000.50 1000.66 1000.82 1001.02 1001.26 1001.22 1001.42 1001.70
1015.66 1015.78 1016.46 1015.90 1015.34 1013.86 1014.98 1014.18 1014.30 1012.46 1011.66 1011.66 1011.78 1012.98 1012.74 1013.34 1012.78 1012.34 1011.46 1011.06 1011.10 1011.10 1011.38 1010.66 1009.38 1008.86 1009.22 1008.26 1009.30 1008.50 1008.38 1007.90 1007.54 1007.46 1007.34 1007.06 1006.82 1006.50 1006.18 1005.86 1005.62 1005.34 1004.98 1004.54 1004.02 1003.50 1003.06 1002.78 1001.86 1001.02 1000.50 1000.46 1000.38 1000.34 1000.10 1000.06 1000.18 1000.62 1000.70 1000.38 1000.46 1000.82 1000.98
1016.26 1014.90 1015.62 1015.10 1012.98 1014.54 1015.34 1014.18 1013.38 1012.54 1011.78 1012.10 1012.34 1014.90 1014.06 1014.54 1013.18 1012.82 1012.62 1012.06 1011.66 1011.46 1011.54 1011.42 1010.62 1010.74 1011.54 1011.06 1010.06 1008.74 1008.58 1008.38 1007.86 1007.98 1007.82 1007.54 1007.22 1006.86 1006.30 1005.94 1005.86 1005.54 1004.90 1004.38 1003.94 1003.54 1003.06 1002.46 1001.66 1001.22 1000.58 1000.18 1000.10 999.66 999.50 999.54 999.82 999.90 999.78 999.46 999.38 999.74 1000.22
1016.06 1015.82 1014.06 1013.30 1013.02 1015.14 1014.78 1014.18 1013.18 1012.82 1012.30 1012.66 1014.62 1014.70 1014.26 1014.66 1013.98 1013.10 1012.86 1012.62 1011.86 1011.94 1012.06 1012.18 1012.58 1011.66 1011.66 1011.02 1009.94 1008.86 1008.66 1008.74 1008.46 1008.14 1007.86 1007.70 1007.50 1007.14 1006.70 1006.34 1006.02 1005.50 1004.94 1004.54 1004.18 1003.66 1002.94 1002.22 1001.54 1000.74 1000.14 999.46 998.90 998.70 998.70 999.06 999.14 998.58 998.26 998.50 999.02 999.62 1000.06
1016.50 1014.90 1014.34 1013.38 1013.66 1017.14 1014.98 1013.94 1013.50 1012.98 1013.30 1014.06 1013.82 1015.10 1015.66 1014.78 1014.30 1013.78 1013.46 1013.34 1012.62 1011.98 1012.22 1012.54 1012.58 1012.26 1011.38 1010.82 1010.22 1009.70 1009.26 1009.14 1008.90 1008.54 1008.22 1007.98 1007.58 1007.10 1006.78 1006.54 1006.18 1005.78 1005.18 1004.58 1003.90 1003.18 1002.54 1002.02 1001.26 1000.50 999.86 999.06 998.38 998.18 998.22 998.34 997.98 997.22 997.58 998.26 998.82 999.34 999.90
1015.74 1015.70 1014.94 1015.14 1015.18 1015.14 1014.54 1014.50 1013.22 1013.74 1014.54 1015.34 1016.38 1015.30 1014.62 1014.14 1014.06 1014.18 1013.98 1013.66 1013.18 1012.94 1012.86 1012.50 1012.38 1012.18 1011.94 1011.42 1010.82 1010.34 1009.94 1009.54 1009.30 1009.02 1008.78 1008.50 1008.18 1007.70 1007.06 1006.54 1006.22 1006.10 1005.66 1004.94 1004.14 1003.46 1002.38 1001.58 1000.90 1000.26 999.70 998.86 997.78 997.66 997.70 997.26 996.74 996.90 997.38 997.94 998.58 999.18 999.74
1016.94 1015.90 1015.82 1016.30 1016.46 1016.34 1014.62 1015.02 1016.02 1015.06 1015.10 1014.94 1014.78 1014.74 1014.54 1014.06 1013.86 1013.82 1013.90 1013.58 1013.38 1013.26 1013.06 1012.70 1012.46 1011.98 1011.90 1011.66 1011.02 1010.50 1010.10 1009.70 1009.46 1009.22 1009.06 1008.66 1008.30 1007.82 1007.34 1007.14 1006.86 1006.46 1005.98 1005.26 1004.54 1003.42 1002.46 1001.54 1000.74 999.94 999.22 998.62 997.50 997.30 997.10 996.22 996.30 996.70 997.22 997.70 998.26 999.02 999.58
1017.22 1017.10 1016.98 1016.78 1015.82 1015.54 1014.74 1014.42 1014.74 1014.78 1014.66 1014.50 1014.54 1014.62 1014.54 1014.46 1014.06 1013.66 1013.82 1013.78 1013.58 1013.50 1013.18 1012.78 1012.46 1012.06 1011.46 1011.34 1010.86 1010.30 1009.86 1009.58 1009.54 1009.38 1009.22 1008.90 1008.50 1008.14 1007.82 1007.46 1007.02 1006.62 1006.26 1005.70 1004.78 1003.58 1002.42 1001.58 1000.66 999.70 998.34 997.78 997.26 997.06 996.30 995.86 996.26 996.66 997.06 997.46 998.10 998.82 999.30
1016.30 1015.46 1015.38 1015.34 1015.02 1015.06 1014.50 1014.94 1015.02 1015.10 1014.78 1014.54 1014.50 1014.54 1014.62 1014.38 1014.10 1013.94 1013.82 1013.62 1013.54 1013.50 1013.22 1013.02 1012.38 1012.02 1011.46 1011.02 1010.58 1010.10 1009.54 1009.26 1009.26 1009.14 1008.98 1008.74 1008.46 1008.14 1007.90 1007.58 1007.06 1006.66 1006.14 1005.58 1004.90 1003.98 1002.54 1001.50 1000.70 999.42 997.98 997.10 997.02 996.38 995.66 995.66 995.82 996.30 996.78 997.42 998.06 998.54 998.94
1017.10 1016.38 1015.62 1015.54 1015.54 1015.30 1014.58 1015.06 1014.94 1014.86 1014.78 1014.78 1014.58 1014.58 1014.50 1014.26 1013.98 1013.78 1013.70 1013.62 1013.46 1013.26 1013.10 1012.86 1012.50 1011.98 1011.50 1011.10 1010.62 1010.26 1009.74 1009.10 1008.90 1009.14 1009.18 1008.94 1008.78 1008.54 1008.22 1007.82 1007.34 1006.78 1006.30 1005.70 1004.94 1004.06 1003.06 1001.54 1000.66 999.34 997.98 996.82 995.74 995.34 995.42 995.38 995.58 995.98 996.62 997.22 997.82 998.22 998.66
1018.30 1017.74 1016.54 1015.90 1015.70 1015.10 1014.98 1015.38 1015.58 1015.30 1015.10 1015.02 1014.74 1014.66 1014.34 1014.14 1013.90 1013.74 1013.50 1013.30 1013.14 1012.90 1012.66 1012.42 1012.34 1012.06 1011.50 1011.06 1010.66 1010.42 1010.06 1009.46 1008.94 1008.90 1009.18 1009.14 1008.86 1008.54 1008.34 1007.98 1007.54 1007.02 1006.58 1006.14 1005.26 1004.34 1003.26 1001.82 1000.70 999.42 997.98 997.02 995.66 995.18 995.06 995.10 995.30 995.82 996.54 997.06 997.54 997.90 998.22
1017.54 1016.46 1016.18 1016.22 1015.90 1015.18 1015.50 1015.46 1015.62 1015.54 1015.26 1015.10 1014.86 1014.54 1014.42 1014.10 1013.90 1013.70 1013.46 1013.38 1013.18 1012.90 1012.62 1012.34 1012.26 1012.06 1011.46 1011.02 1010.62 1010.46 1010.14 1009.78 1009.42 1009.18 1009.30 1009.26 1009.02 1008.62 1008.14 1007.82 1007.58 1007.38 1006.90 1006.10 1005.22 1004.30 1003.22 1001.86 1000.54 999.10 997.98 997.14 995.90 995.18 995.14 995.06 995.22 995.94 996.58 996.90 997.10 997.42 997.74
1018.18 1018.54 1018.10 1017.42 1018.30 1017.46 1016.38 1016.06 1015.62 1015.54 1015.26 1015.02 1014.82 1014.62 1014.34 1014.10 1013.94 1013.78 1013.62 1013.38 1013.06 1012.74 1012.46 1012.26 1011.98 1011.82 1011.46 1010.94 1010.58 1010.50 1010.30 1010.10 1009.70 1009.30 1009.22 1009.14 1008.94 1008.46 1008.10 1007.90 1007.62 1007.38 1006.90 1006.22 1005.26 1004.26 1003.06 1001.74 1000.18 998.78 998.10 997.70 997.10 996.06 995.58 995.38 995.42 996.14 996.62 996.94 997.10 997.38 997.50
1019.26 1017.62 1017.42 1017.38 1017.90 1017.94 1016.98 1016.30 1015.86 1015.54 1015.26 1015.06 1015.10 1015.06 1014.74 1014.42 1014.06 1013.82 1013.78 1013.62 1013.18 1012.86 1012.38 1011.94 1011.78 1011.66 1011.42 1010.90 1010.50 1010.34 1010.22 1010.06 1009.70 1009.38 1009.18 1009.18 1008.90 1008.46 1008.06 1007.82 1007.46 1007.18 1006.50 1005.62 1004.82 1003.98 1002.86 1001.50 1000.02 998.98 998.46 997.94 997.46 996.78 996.50 996.50 996.98 997.58 997.66 997.34 997.30 997.42 997.58
1017.22 1017.02 1017.34 1017.42 1017.66 1017.82 1016.78 1016.50 1016.50 1016.06 1015.38 1015.26 1015.26 1015.02 1014.86 1014.58 1014.30 1013.98 1013.70 1013.50 1013.34 1012.90 1012.34 1011.82 1011.54 1011.42 1011.14 1010.70 1010.42 1010.18 1009.94 1009.74 1009.50 1009.26 1009.10 1009.06 1008.82 1008.46 1008.18 1008.30 1007.94 1007.14 1006.38 1005.74 1004.86 1003.78 1002.50 1001.18 1000.18 999.42 998.86 998.62 998.54 997.94 997.82 997.98 997.74 997.78 999.30 1000.50 999.18 997.74 997.54
1017.42 1016.74 1017.06 1017.26 1017.30 1016.82 1016.86 1016.70 1016.42 1015.94 1015.54 1015.58 1015.38 1015.06 1014.74 1014.58 1014.30 1013.98 1013.74 1013.46 1013.14 1012.78 1012.22 1011.74 1011.30 1011.10 1010.86 1010.46 1010.18 1009.90 1009.70 1009.58 1009.38 1009.18 1009.02 1008.94 1008.74 1008.54 1008.42 1008.30 1007.78 1007.30 1006.54 1005.46 1004.42 1003.38 1002.30 1001.26 1000.34 999.86 999.46 998.98 998.58 998.50 998.46 998.46 998.58 998.66 998.82 1000.02 1001.30 1000.26 998.26
Wind_Speed
8 12 14 12 12 12 8 10 13 13 9 12 11 13 18 19 14 12 7 10 12 8 11 13 12 14 18 19 17 13 16 18 20 24 23 23 21 21 20 20 19 19 18 18 16 16 16 17 19 20 19 18 18 18 19 21 20 20 20 19 19 18 16
16 13 9 9 17 13 11 11 11 10 13 14 10 10 7 11 13 8 10 12 11 12 8 11 14 15 14 18 19 19 14 19 19 22 23 21 22 23 24 21 20 21 20 20 20 20 21 21 21 18 16 17 17 18 21 22 22 22 20 20 19 17 17
10 4 6 11 15 12 14 14 8 10 11 14 11 9 12 11 12 9 11 14 13 12 9 9 15 16 12 12 17 20 15 8 14 19 25 25 24 22 22 23 19 19 19 20 20 20 20 18 17 14 15 18 19 20 21 23 25 24 23 21 19 16 17
12 9 5 10 10 10 15 15 18 15 12 11 11 12 10 8 11 10 10 14 10 8 10 9 12 14 12 15 14 19 19 14 12 14 21 22 21 18 23 21 21 21 21 22 23 23 23 21 18 15 14 14 21 23 21 23 23 21 20 21 19 18 20
12 8 4 9 8 10 12 14 14 11 10 8 11 9 14 10 10 10 10 9 9 10 10 11 9 15 17 15 14 10 16 15 17 17 16 16 17 20 22 21 21 23 21 24 23 22 22 20 17 13 12 11 15 18 22 24 24 24 24 22 21 18 17
10 10 10 9 11 13 13 12 12 13 12 12 12 11 10 13 10 7 9 10 8 9 11 13 12 11 17 17 10 11 13 17 16 15 15 11 18 19 22 22 22 20 20 21 21 20 16 19 16 14 12 10 11 18 20 22 23 23 24 22 20 18 17
12 13 14 14 15 17 17 15 14 14 15 14 11 8 10 13 13 12 12 11 10 9 7 11 15 15 12 9 11 12 12 15 17 15 16 11 10 19 23 25 22 20 20 19 21 20 20 19 15 17 14 15 17 17 18 20 23 24 23 23 21 17 17
16 20 20 19 17 17 15 14 16 16 14 6 10 11 11 11 12 13 11 12 10 9 10 10 12 4 8 9 14 13 12 13 12 14 16 14 8 10 19 20 21 19 19 19 17 17 15 15 15 17 16 16 18 19 18 21 25 25 24 22 20 19 19
7 11 12 14 12 12 12 11 12 17 17 17 17 14 10 10 13 15 11 12 9 13 6 7 6 1 10 6 6 6 12 9 11 12 11 11 16 11 14 17 22 23 22 19 16 17 16 17 18 17 19 19 19 20 20 22 23 23 22 20 20 21 21
10 8 8 8 8 11 9 12 16 19 18 16 12 11 11 9 10 15 9 9 10 11 4 10 12 8 9 6 8 16 8 7 6 3 6 8 11 16 14 11 22 24 22 19 18 18 17 19 20 19 20 20 22 19 21 20 20 22 21 20 21 20 20
11 10 7 9 12 10 10 11 15 15 15 14 13 11 12 12 8 13 12 10 9 8 3 16 21 12 7 7 4 15 9 6 9 7 8 6 1 16 15 15 19 19 17 20 18 17 19 21 19 18 21 21 20 18 20 20 21 21 20 20 18 20 21
18 19 20 17 15 14 14 14 15 16 15 15 15 12 11 11 10 11 12 13 13 12 3 6 10 20 13 13 18 9 14 14 15 16 19 11 5 10 9 11 10 16 19 20 18 20 21 21 21 20 20 19 19 18 20 20 22 21 18 19 18 18 19
20 19 21 20 17 16 17 18 17 19 17 17 16 13 12 12 8 10 15 17 18 13 7 9 14 16 11 14 19 18 18 16 15 16 15 22 21 8 9 9 6 8 18 16 20 22 21 22 21 22 21 21 18 18 19 19 19 21 19 17 18 19 18
19 19 19 19 20 18 19 19 18 17 18 18 17 18 16 15 15 17 17 20 23 18 5 8 10 11 14 13 13 13 18 17 16 15 17 18 16 20 19 17 15 14 8 12 16 19 19 21 21 22 18 17 18 19 19 19 18 18 16 17 16 18 19
17 18 18 20 21 20 19 19 18 18 18 18 18 17 18 17 17 18 19 19 18 3 4 8 6 7 11 12 12 13 14 16 17 15 16 15 17 17 18 16 17 15 16 16 11 6 9 15 19 17 14 16 17 21 19 20 18 17 18 16 17 17 17
14 14 16 18 19 19 20 21 19 18 18 17 15 15 14 14 15 17 19 17 12 6 10 7 10 10 8 10 10 9 8 13 13 16 15 16 16 17 17 16 16 15 16 15 11 10 15 12 10 5 5 13 17 18 18 19 19 19 18 18 18 16 16
13 14 15 16 17 17 18 18 17 16 17 18 18 18 18 17 16 17 14 13 6 9 11 11 11 8 7 9 9 8 9 9 12 14 14 14 15 16 15 15 15 16 15 13 11 8 1 5 7 8 13 12 12 14 14 15 16 18 17 19 17 15 15
10 13 13 13 12 15 14 8 12 12 14 15 20 20 19 17 16 14 14 9 5 6 7 10 12 10 9 7 8 12 9 9 11 11 12 13 14 14 14 15 15 14 14 12 10 12 12 5 8 9 14 16 9 12 10 11 15 15 14 16 15 15 15
12 12 11 10 14 13 10 12 11 11 10 10 12 15 16 18 19 22 20 17 17 3 8 5 6 9 9 10 8 11 10 12 9 11 12 13 13 13 13 13 14 13 13 15 14 13 12 9 9 11 11 12 7 7 10 11 12 10 11 12 13 14 14
10 11 9 7 10 10 11 8 12 13 7 9 11 15 17 16 9 16 18 21 20 15 6 5 8 8 10 4 11 13 14 13 12 12 12 13 13 13 12 13 12 12 13 13 15 15 14 14 10 10 11 10 10 9 10 11 11 11 10 10 13 14 13
9 11 11 13 9 11 14 9 8 8 8 8 6 5 3 15 17 15 13 15 19 18 15 14 11 11 11 5 8 14 14 15 14 13 12 13 13 13 12 12 12 12 12 12 14 15 15 14 15 12 11 12 13 14 15 12 9 13 13 10 13 15 15
10 10 11 7 8 10 4 2 6 6 5 5 4 5 8 14 16 17 14 13 14 17 16 16 15 13 8 11 2 12 15 15 16 14 13 14 14 14 13 13 13 13 13 14 14 13 16 16 15 14 15 12 11 12 12 14 15 14 16 14 14 16 17
9 12 9 8 9 4 5 4 5 10 8 7 7 4 8 6 13 15 14 13 13 13 15 16 15 9 7 4 8 11 16 15 15 15 14 14 14 14 14 15 15 16 15 15 15 15 15 16 16 17 16 14 16 15 14 17 16 14 16 16 16 17 18
14 10 10 10 8 1 3 7 7 10 8 9 4 4 3 8 11 13 13 12 13 12 13 14 11 10 9 11 12 14 14 15 14 14 15 16 16 15 15 14 16 16 15 15 15 15 16 16 17 18 18 16 17 18 17 15 18 20 21 19 16 16 16
14 14 12 9 4 4 9 11 11 9 9 6 4 7 3 9 11 11 11 12 11 11 11 10 9 9 10 12 15 16 15 15 15 14 14 15 15 16 16 16 17 15 15 14 16 17 16 16 17 18 17 17 14 12 17 18 20 20 18 15 13 13 14
11 12 12 12 2 2 9 11 8 7 7 7 6 5 5 8 10 10 11 11 12 12 11 8 8 11 15 15 14 16 17 15 14 15 16 16 17 16 16 17 17 17 17 18 19 19 18 18 18 17 17 17 12 10 15 18 18 16 14 13 12 13 15
8 8 10 7 10 4 12 14 5 8 5 4 3 7 7 8 9 10 11 9 10 12 12 13 12 13 14 15 15 14 15 14 15 15 16 17 17 18 19 20 20 19 18 18 19 21 20 20 17 17 19 19 13 10 16 18 17 12 12 13 13 13 14
3 4 6 2 3 5 8 8 3 5 5 6 6 7 9 8 8 9 10 10 10 11 11 14 15 16 14 13 14 14 13 13 14 13 14 15 16 17 18 18 18 20 18 18 20 21 20 19 18 19 18 17 12 10 14 14 13 10 11 13 13 13 14
3 1 4 4 4 4 7 7 5 4 4 6 7 8 9 9 8 9 9 11 12 12 13 13 14 15 14 14 15 15 15 15 14 14 14 14 16 17 18 19 19 19 18 20 20 22 21 21 20 18 18 15 12 11 11 11 12 11 12 13 14 14 15
8 9 5 5 4 8 9 6 6 4 6 6 7 9 9 9 9 9 10 12 12 12 12 13 12 12 15 16 16 16 15 14 14 13 13 14 15 17 18 18 20 20 20 20 20 22 23 22 20 18 17 16 14 11 9 11 12 10 12 13 15 15 15
9 2 7 10 11 11 10 5 6 7 7 8 9 9 9 11 11 11 12 11 12 13 12 13 13 13 14 15 15 15 15 15 12 13 14 13 14 15 18 18 19 19 20 20 21 23 24 23 19 19 18 17 10 9 11 11 12 10 12 14 14 14 15
6 7 11 11 13 13 6 6 8 9 9 10 10 10 11 12 12 11 12 12 13 12 12 12 13 14 13 14 14 13 14 14 13 13 13 14 14 13 13 15 17 19 19 20 21 22 21 20 18 18 16 15 6 7 10 11 12 11 12 14 14 15 16
8 9 6 13 15 5 4 10 8 9 10 11 12 12 12 12 13 13 12 12 13 13 13 13 13 14 13 13 13 13 13 14 13 12 11 12 13 12 14 16 17 16 18 20 22 22 22 20 19 16 14 13 9 10 9 9 10 11 12 14 15 16 16
7 7 9 13 9 9 11 12 12 13 13 13 13 13 13 13 13 13 14 14 13 14 14 13 13 13 12 12 12 13 13 13 14 12 10 11 13 12 13 13 15 17 18 18 19 21 20 19 18 15 11 8 11 9 3 5 8 9 10 12 14 14 14
7 9 10 8 6 9 10 13 14 14 13 13 13 13 13 14 13 13 13 14 14 14 14 13 13 13 12 13 12 13 12 12 12 11 12 11 12 13 13 16 18 19 20 20 20 21 19 18 14 11 8 8 9 7 4 5 9 9 5 8 11 12 12
8 7 8 9 8 10 12 12 12 13 12 12 12 12 12 13 13 13 14 14 15 14 15 15 13 14 13 13 12 13 13 12 11 10 10 11 12 12 10 12 16 18 20 19 19 20 16 14 12 12 9 9 10 11 12 9 5 7 7 12 8 10 12
8 8 8 9 10 11 8 9 10 10 10 11 11 12 12 12 13 14 14 14 14 15 15 15 14 13 14 13 12 13 12 11 11 11 12 11 12 11 11 14 16 17 18 18 19 14 13 15 9 9 8 6 5 5 6 5 3 4 5 3 11 13 10
Wind_Direction
279 204 187 211 242 237 217 227 215 220 244 251 255 262 277 291 293 277 270 230 212 223 230 229 219 219 212 215 233 247 188 204 171 168 172 176 178 180 183 179 182 183 181 179 183 184 185 186 192 197 194 191 189 183 180 183 187 188 187 186 185 187 185
229 264 302 260 198 236 271 230 216 220 225 251 253 263 250 251 261 258 258 254 249 198 222 200 218 219 214 204 209 226 238 194 173 161 172 173 183 184 182 183 180 180 181 180 188 194 192 193 196 196 195 191 189 184 183 183 185 187 188 187 187 185 184
355 3 255 272 287 211 248 263 298 243 197 208 227 258 245 247 244 260 250 264 249 244 216 172 214 206 209 226 196 217 229 199 186 164 172 180 188 179 174 179 179 176 178 181 185 185 186 179 185 184 196 197 192 189 188 187 188 188 187 186 188 187 185
328 297 232 247 242 228 228 256 256 262 292 280 226 211 256 255 266 256 243 251 264 238 265 209 200 176 193 228 222 206 218 183 193 207 191 181 185 161 169 174 175 177 180 183 185 190 189 186 182 185 193 199 200 200 191 190 190 189 188 188 187 187 188
315 263 228 248 250 255 210 209 252 264 262 265 289 248 216 229 243 248 268 249 229 259 269 258 216 178 187 210 233 208 212 198 192 208 221 179 176 165 174 174 174 178 182 186 187 184 187 182 179 180 180 193 211 212 199 191 191 190 190 191 189 188 188
253 271 271 272 252 254 261 239 233 250 240 233 236 264 245 217 224 241 249 259 283 223 220 250 269 188 177 182 206 238 212 218 201 200 227 181 168 155 169 170 175 180 181 183 185 183 174 180 174 156 162 181 217 215 208 198 193 191 191 190 189 186 188
262 267 275 284 304 320 311 289 250 238 233 234 236 250 250 238 226 235 245 266 251 292 328 332 238 235 193 188 175 218 223 217 216 206 209 206 182 169 172 173 174 174 177 180 183 183 184 176 158 172 174 186 191 211 218 206 195 192 191 190 189 184 186
283 284 287 290 291 288 277 280 271 257 236 281 295 272 269 268 234 215 222 232 254 257 21 326 348 195 197 191 190 195 221 208 222 219 204 192 193 191 171 179 172 165 171 173 174 175 180 186 170 174 185 190 197 198 202 206 198 194 191 190 188 185 186
270 254 259 268 280 278 263 257 260 256 253 256 262 290 324 301 274 256 223 232 220 258 287 318 272 81 269 189 190 205 218 210 211 213 216 200 178 197 205 184 163 169 168 171 174 178 182 182 179 181 187 189 192 195 191 205 209 197 193 189 187 186 187
248 248 235 239 237 247 263 256 266 269 255 256 279 271 257 257 277 282 280 255 227 253 354 279 252 180 226 3 308 184 218 225 188 190 222 214 183 188 195 168 155 166 172 174 175 177 185 187 188 181 186 193 197 193 198 206 208 198 193 190 189 185 186
275 268 338 331 316 321 296 291 302 314 313 302 297 306 279 251 288 275 254 267 284 254 31 12 351 316 239 269 68 42 36 327 130 73 3 333 247 180 182 177 161 173 166 174 175 179 180 186 190 185 187 191 190 192 195 198 205 199 192 190 187 185 186
269 281 288 297 305 288 286 286 282 282 299 310 302 277 286 328 357 296 306 305 263 247 73 350 8 356 9 13 355 26 37 27 25 33 17 359 230 154 166 168 159 154 168 170 174 180 184 190 194 192 186 187 193 192 196 194 200 197 191 190 186 183 186
265 272 283 287 292 293 291 290 291 287 284 282 277 286 296 306 300 295 288 300 296 275 43 37 22 353 14 24 29 5 24 25 27 30 32 27 4 131 90 38 28 145 172 173 175 176 185 191 194 193 190 194 193 194 197 195 198 196 188 188 186 184 185
264 263 264 277 279 272 269 267 264 268 276 278 281 278 276 279 281 277 279 281 281 271 5 47 56 350 15 29 33 9 0 9 20 29 33 26 25 25 31 31 29 26 32 177 179 181 187 193 195 193 190 187 191 193 192 193 195 194 182 187 186 186 187
264 264 273 276 271 264 260 261 259 264 272 273 273 279 283 287 279 280 279 276 273 13 330 359 50 64 22 27 34 20 359 357 14 22 26 26 16 20 24 21 18 19 30 31 22 331 216 200 190 189 186 185 189 196 195 195 196 193 184 185 186 187 189
263 261 262 260 263 261 259 259 263 267 267 269 262 260 259 260 267 274 268 266 254 39 356 3 10 59 39 20 37 29 10 356 9 15 13 17 14 15 18 18 13 13 15 23 24 359 324 344 347 280 211 187 191 197 195 197 197 197 191 186 188 187 186
259 268 260 261 263 261 247 243 251 257 263 268 270 264 260 257 267 262 255 257 38 23 17 23 27 6 49 49 11 25 22 10 11 6 15 12 12 9 16 13 7 3 3 360 358 18 40 292 281 263 283 260 213 203 199 195 194 199 195 191 186 185 183
259 248 258 264 258 246 244 263 247 251 269 265 257 250 252 255 251 263 258 245 78 4 29 15 351 12 346 5 53 39 19 11 10 7 13 14 7 5 11 5 358 357 344 345 345 339 333 291 250 248 231 227 222 201 215 200 197 198 197 191 184 181 182
261 256 249 255 248 249 268 276 320 335 286 294 315 315 282 259 251 257 259 265 270 181 103 55 352 345 343 22 39 55 30 19 17 10 10 7 5 359 359 355 352 348 337 331 335 332 331 336 314 299 262 231 236 209 195 224 208 202 205 187 180 180 181
268 263 241 243 237 241 252 257 23 351 337 359 333 280 264 266 332 18 8 344 303 297 293 22 2 336 330 82 47 43 19 20 15 5 9 358 0 353 350 345 342 340 333 327 321 322 320 315 296 274 282 262 230 207 209 214 222 209 210 189 175 176 179
237 247 248 247 275 284 271 290 19 9 355 358 351 306 282 27 14 10 11 357 349 351 1 10 351 336 322 284 68 20 22 4 10 0 3 355 351 346 341 340 333 328 326 324 322 319 312 310 310 296 267 239 234 223 191 212 214 211 210 194 179 176 181
243 254 252 250 247 248 235 15 334 1 360 332 298 268 263 24 5 357 9 359 2 351 353 354 341 321 284 259 58 17 10 355 359 353 356 349 345 341 339 333 329 333 333 328 315 307 304 299 291 285 275 257 222 225 202 203 205 200 203 204 187 180 183
234 232 247 244 242 250 39 47 323 321 355 352 324 285 256 26 350 1 1 354 357 354 351 346 338 329 283 252 44 4 2 353 350 349 346 343 341 338 338 335 334 335 326 319 308 300 292 287 283 278 265 255 236 222 203 203 201 200 208 200 188 184 185
242 234 229 236 251 162 57 356 336 330 340 332 302 273 240 4 353 355 355 347 349 351 353 347 341 2 359 347 337 342 351 349 342 348 339 339 338 336 337 337 338 326 323 319 317 310 301 297 297 295 284 250 237 213 201 203 205 202 201 202 191 187 182
237 239 243 251 212 77 352 344 338 327 309 297 275 244 21 349 341 347 353 344 337 345 342 354 337 345 340 325 323 324 341 342 342 340 340 335 334 334 337 339 336 331 328 324 316 310 301 297 295 292 288 270 245 214 196 199 209 206 199 194 187 178 180
234 234 237 241 122 33 313 341 325 336 304 242 255 37 299 317 330 339 346 345 341 334 335 330 324 319 321 323 323 329 334 337 336 336 336 335 333 334 336 337 339 336 328 324 317 313 308 302 297 292 290 272 247 220 201 200 207 206 188 183 182 176 177
231 250 257 256 247 48 1 342 320 27 321 14 315 315 317 313 321 323 330 335 338 345 331 329 320 318 320 318 320 326 326 331 335 337 337 335 335 335 337 338 338 336 329 323 319 313 308 305 300 294 290 277 248 224 203 199 200 198 174 175 178 174 174
288 253 249 267 21 301 354 6 335 354 359 338 312 319 312 322 310 313 312 319 329 331 318 322 322 316 315 311 315 315 317 325 330 335 337 334 333 333 334 334 331 331 326 321 315 311 308 305 301 294 284 276 251 221 205 195 189 180 169 169 171 171 174
298 310 321 279 268 337 321 337 328 317 333 329 318 315 312 313 318 310 302 302 309 314 316 313 316 313 312 313 312 315 320 324 329 335 338 338 336 335 334 330 328 328 323 317 313 310 309 307 303 296 288 279 258 218 202 182 177 175 170 169 170 170 176
334 277 274 336 339 340 336 24 19 350 324 320 320 314 308 309 307 310 302 303 299 302 308 309 304 306 310 311 313 312 315 321 328 329 334 337 339 335 331 329 330 328 323 318 315 312 310 308 306 299 296 286 256 214 189 175 172 173 169 167 170 172 175
329 276 27 347 352 334 329 23 2 3 337 331 324 308 305 301 302 302 301 299 297 294 298 296 297 301 310 306 307 312 311 312 322 335 331 332 334 332 329 327 328 328 326 320 316 314 310 308 307 302 302 296 243 191 178 171 173 169 170 167 171 170 173
311 304 319 329 338 323 355 33 357 340 343 329 317 316 308 302 299 297 299 299 293 294 289 293 299 300 301 303 305 308 308 315 321 327 328 325 324 325 325 324 327 324 321 316 312 311 308 305 301 296 296 304 241 180 172 174 173 168 169 170 173 174 174
303 294 320 342 327 329 74 347 343 328 325 320 310 313 311 301 298 299 300 300 299 294 287 290 295 295 295 303 306 303 307 310 315 321 327 320 315 318 327 331 329 324 317 312 309 308 304 302 297 289 295 315 296 189 178 181 176 169 171 173 176 176 176
321 337 335 341 336 322 323 325 325 327 315 311 311 304 301 301 301 302 299 297 296 293 289 287 286 289 295 300 303 302 301 304 309 318 323 317 315 316 325 324 324 317 310 304 303 307 304 300 300 295 310 319 330 334 318 207 190 181 173 178 180 180 182
303 327 330 332 315 299 303 314 318 316 315 313 313 312 306 307 305 304 303 301 295 291 289 287 286 288 291 292 296 295 296 298 301 308 320 317 316 322 330 330 327 321 317 312 311 307 303 305 310 321 321 328 339 343 17 10 359 345 285 197 182 184 184
303 324 330 328 319 311 312 318 316 308 310 315 310 308 306 303 303 298 293 290 289 289 288 284 280 283 285 287 287 288 292 292 295 308 314 313 310 319 327 326 313 316 322 311 306 305 299 303 328 330 344 2 3 349 358 355 16 72 17 314 269 200 190
313 324 326 320 315 309 312 302 298 305 314 317 310 306 309 305 298 297 292 288 284 283 283 282 282 278 277 279 281 282 284 288 296 305 309 311 312 323 332 325 322 324 315 316 316 303 316 318 323 334 344 7 41 41 24 11 37 73 135 189 280 277 235